Regional Weather Roundup
Issued by NWS Sioux Falls, SD

Home | Current Version | Previous Version | Text Only | Print | Product List | Glossary On
Versions: 1 2 3 4 5 6 7 8 9 10 11 12 13 14 15 16 17 18 19 20 21 22 23 24 25 26 27 28 29 30 31 32 33 34 35 36 37 38 39 40 41 42 43 44 45 46 47 48 49 50
000
ASUS43 KFSD 211310
RWRFSD

WEATHER ROUNDUP FOR SE SOUTH DAKOTA/SW MINNESOTA/NW IOWA
NATIONAL WEATHER SERVICE SIOUX FALLS SD
800 AM CDT THU SEP 21 2017

NOTE: "FAIR" INDICATES FEW OR NO CLOUDS BELOW 12,000 FEET WITH NO
SIGNIFICANT WEATHER AND OR OBSTRUCTIONS TO VISIBILITY.


SDZ038>040-050-052>070-211400-
SOUTHEAST SOUTH DAKOTA

CITY           SKY/WX    TMP DP  RH WIND       PRES   REMARKS
BROOKINGS      CLEAR     54  48  80 SE13      29.89F
CHAMBERLAIN    CLEAR     58  49  73 SE12G18   29.79S
HURON          CLEAR     51  46  83 SE12      29.83F
MADISON        FAIR      55  52  88 SE13G21   29.88S
MITCHELL       CLEAR     53  48  83 SE7       29.85F
SIOUX FALLS    CLEAR     58  52  80 SE13G21   29.88F
WINNER         FAIR      56  48  74 SE14      29.78S
YANKTON        PTCLDY    52  49  89 E3        29.86F
$$

MNZ071-072-080-081-089-090-097-098-211400-
SOUTHWEST MINNESOTA

CITY           SKY/WX    TMP DP  RH WIND       PRES   REMARKS
FAIRMONT       CLEAR     54  50  86 E3        29.95F
JACKSON        CLEAR     52  48  87 CALM      29.95S
LUVERNE        CLEAR     52  46  82 SE6       29.91F
MARSHALL       CLEAR     52  48  86 SE9       29.92S
MONTEVIDEO     CLEAR     52  50  93 S7        29.92F
PIPESTONE      CLEAR     54  48  82 SE9       29.91S
REDWOOD FALLS  CLEAR     51  47  86 SE7       29.94S
TRACY          CLEAR     53  49  86 S8        29.92F
WINDOM         CLEAR     55  48  76 SE5       29.94F
WORTHINGTON    CLEAR     53  50  89 E8        29.93F
$$

IAZ001>003-012>014-020>022-031-032-NEZ013-014-SDZ071-211400-
NORTHWEST IOWA

CITY           SKY/WX    TMP DP  RH WIND       PRES   REMARKS
DENISON        CLOUDY    63  59  88 E9G15     29.91S
ESTHERVILLE    CLEAR     52  51  97 E3        29.93F
ORANGE CITY    CLEAR     57  54  88 E8        29.89F
SHELDON        CLEAR     57  52  82 SE8       29.90S
SIOUX CITY     PTCLDY    59  56  89 SE7       29.87F
SPENCER        CLEAR     55  52  89 E8        29.92F
STORM LAKE     CLEAR     57  54  88 E9        29.92S
$$

ABBREVIATIONS USED IN REMARKS
   TC - TEMPERATURE IN CELSIUS
  WCI - WIND CHILL INDEX
   HX - HEAT INDEX
  VSB - VISIBILITY




USA.gov is the U.S. government's official web portal to all federal, state and local government web resources and services.